KAZSAT-2

Last updated on Tue Sep 22 2026 00:03:12 GMT+0000 (Coordinated Universal Time)

1 37749U 11035B 26264.50623075 -.00000202 00000+0 00000+0 0 9991 2 37749 0.0058 35.1811 0001370 197.0018 36.9840 1.00271598 54362
UTC large
Height (km)
Speed (km/s)
/
Latitude / Longitude
Inclination (degrees)
Orbital Period (minutes)
Azimuth
Elevation
Range (km)
Doppler Factor

Next 0 passes for location: London (51.5072 / 0.1276)

No passes found over London.
KAZSAT-2